Weather History for KOZW - February, 2012

Change the Weather History Date:

Saturday, February 25, 2012

  Actual Average (KFNT) Record (KFNT)
Temperature  
Mean Temperature 30 °F 27 °F  
Max Temperature 32 °F 36 °F 61 °F (1976)
Min Temperature 27 °F 19 °F -15 °F (1993)
Degree Days  
Heating Degree Days 36 38  
Month to date heating degree days 1012  
Since 1 July heating degree days 4976  
Cooling Degree Days 0 0  
Month to date cooling degree days 0  
Year to date cooling degree days 0  
Moisture  
Dew Point 24 °F    
Average Humidity 79    
Maximum Humidity 94    
Minimum Humidity 65    
Precipitation  
Precipitation 0.00 in 0.06 in 1.08 in (1930)
Month to date precipitation 1.30  
Year to date precipitation 2.93  
Snow  
Snow 0.00 in 0.40 in 10.20 in (1965)
Month to date snowfall 9.8  
Since 1 July snowfall 37.6  
Snow Depth -    
Sea Level Pressure  
Sea Level Pressure 29.98 in    
Wind  
Wind Speed 12 mph (West)    
Max Wind Speed 18 mph    
Max Gust Speed 25 mph    
Visibility 8 miles    
Events Snow    
T = Trace of Precipitation, MM = Missing Value Source: NWS Daily Summary

Daily Weather History Graph

Daily Weather History Graph

Search for Another Location

Airport or City:

Trip Planner

Search our weather history database for the weather conditions in past years. The results will help you decide how hot, cold, wet, or windy it might be!

Date:

Astronomy

Feb. 25, 2012 Rise Set
Actual Time 7:18 AM EST 6:19 PM EST
Civil Twilight 6:50 AM EST 6:48 PM EST
Nautical Twilight 6:17 AM EST 7:21 PM EST
Astronomical Twilight 5:44 AM EST 7:53 PM EST
Moon 8:35 AM EST (2/25) 10:27 PM EST (2/25)
Length of Visible Light 11h 58m
Length of Day
11h 01m
Waxing Crescent, 13% of the Moon is Illuminated
Feb 25
Waxing Crescent
Feb 29
First Quarter
Mar 8
Full
Mar 14
Last Quarter
Mar 22
New

Hourly Weather History & Observations

Time (EST) Temp. Windchill Dew Point Humidity Pressure Visibility Wind Dir Wind Speed Gust Speed Precip Events Conditions
12:15 AM 30.2 °F 21.3 °F 26.2 °F 85% 29.72 in 7.0 mi West 10.4 mph - N/A Snow Light Snow
12:34 AM 30.6 °F 22.4 °F 27.0 °F 86% 29.72 in 4.0 mi West 9.2 mph - N/A Snow Light Snow
12:54 AM 30.2 °F 21.9 °F 27.3 °F 89% 29.72 in 7.0 mi West 9.2 mph - N/A Snow Light Snow
1:15 AM 30.2 °F 21.9 °F 27.9 °F 91% 29.73 in 4.0 mi West 9.2 mph - N/A Snow Light Snow
1:34 AM 30.0 °F 21.7 °F 27.7 °F 91% 29.73 in 5.0 mi West 9.2 mph - N/A Snow Light Snow
1:55 AM 29.7 °F 21.3 °F 27.5 °F 92% 29.73 in 7.0 mi West 9.2 mph - N/A   Overcast
2:15 AM 29.3 °F 21.5 °F 26.6 °F 90% 29.73 in 7.0 mi West 8.1 mph - N/A   Overcast
2:34 AM 29.3 °F 19.1 °F 26.6 °F 90% 29.73 in 10.0 mi West 12.7 mph - N/A   Overcast
2:55 AM 29.8 °F 20.3 °F 27.1 °F 90% 29.73 in 5.0 mi West 11.5 mph - N/A Snow Light Snow
3:14 AM 29.5 °F 19.9 °F 26.6 °F 89% 29.73 in 7.0 mi West 11.5 mph - N/A   Overcast
4:14 AM 29.3 °F 19.6 °F 27.5 °F 93% 29.74 in 0.5 mi WNW 11.5 mph - N/A Snow Snow
4:35 AM 29.5 °F 19.3 °F 28.0 °F 94% 29.75 in 3.0 mi West 12.7 mph - N/A Snow Light Snow
4:55 AM 29.8 °F 19.8 °F 27.5 °F 91% 29.76 in 4.0 mi West 12.7 mph - N/A Snow Light Snow
5:14 AM 29.7 °F 19.6 °F 27.1 °F 90% 29.77 in 2.0 mi West 12.7 mph - N/A Snow Light Snow
5:35 AM 29.7 °F 19.6 °F 27.0 °F 90% 29.78 in 5.0 mi West 12.7 mph - N/A Snow Light Snow
5:55 AM 29.7 °F 19.1 °F 26.4 °F 88% 29.79 in 10.0 mi West 13.8 mph 21.9 mph N/A   Overcast
6:14 AM 29.8 °F 19.3 °F 26.1 °F 86% 29.80 in 5.0 mi West 13.8 mph 19.6 mph N/A   Overcast
6:54 AM 29.3 °F 17.3 °F 25.3 °F 85% 29.81 in 10.0 mi West 17.3 mph 20.7 mph N/A   Overcast
7:15 AM 28.8 °F 17.5 °F 24.3 °F 83% 29.82 in 7.0 mi West 15.0 mph 21.9 mph N/A   Overcast
7:35 AM 28.9 °F 19.2 °F 24.8 °F 84% 29.83 in 5.0 mi West 11.5 mph - N/A   Overcast
7:54 AM 28.4 °F 17.0 °F 24.8 °F 86% 29.85 in 7.0 mi West 15.0 mph - N/A   Overcast
8:15 AM 28.4 °F 18.5 °F 23.9 °F 83% 29.86 in 5.0 mi West 11.5 mph - N/A   Overcast
8:34 AM 28.8 °F 19.0 °F 23.9 °F 82% 29.87 in 10.0 mi WNW 11.5 mph 18.4 mph N/A   Overcast
8:55 AM 28.9 °F 18.6 °F 23.9 °F 81% 29.88 in 5.0 mi West 12.7 mph 19.6 mph N/A Snow Light Snow
9:15 AM 28.9 °F 17.3 °F 23.9 °F 81% 29.89 in 5.0 mi West 16.1 mph 24.2 mph N/A   Haze
9:34 AM 28.9 °F 16.9 °F 23.7 °F 81% 29.90 in 5.0 mi West 17.3 mph 20.7 mph N/A   Haze
9:55 AM 29.1 °F 18.4 °F 24.4 °F 83% 29.91 in 3.0 mi WNW 13.8 mph 19.6 mph N/A   Haze
10:14 AM 29.3 °F 17.7 °F 24.1 °F 81% 29.92 in 7.0 mi West 16.1 mph 23.0 mph N/A   Overcast
10:55 AM 30.0 °F 20.5 °F 23.9 °F 78% 29.94 in 10.0 mi WNW 11.5 mph 19.6 mph N/A   Overcast
11:34 AM 30.2 °F 20.2 °F 23.2 °F 75% 29.96 in 10.0 mi WNW 12.7 mph 23.0 mph N/A   Overcast
11:55 AM 30.4 °F 18.7 °F 22.3 °F 72% 29.97 in 10.0 mi WNW 17.3 mph 23.0 mph N/A   Overcast
12:14 PM 30.9 °F 19.8 °F 23.2 °F 73% 29.98 in 7.0 mi WNW 16.1 mph 23.0 mph N/A   Overcast
12:34 PM 31.5 °F 19.8 °F 23.7 °F 73% 29.99 in 7.0 mi West 18.4 mph 25.3 mph N/A   Overcast
12:55 PM 30.9 °F 19.8 °F 23.0 °F 72% 29.99 in 10.0 mi WNW 16.1 mph 23.0 mph N/A   Overcast
1:14 PM 30.2 °F 19.8 °F 24.6 °F 80% 30.00 in 3.0 mi WNW 13.8 mph 21.9 mph N/A Snow Light Snow
1:35 PM 29.8 °F 20.3 °F 25.3 °F 83% 30.01 in 2.5 mi WNW 11.5 mph - N/A Snow Light Snow
1:55 PM 30.9 °F 21.7 °F 24.4 °F 77% 30.02 in 10.0 mi WNW 11.5 mph - N/A   Overcast
2:14 PM 31.1 °F 19.3 °F 22.1 °F 69% 30.03 in 10.0 mi West 18.4 mph 21.9 mph N/A   Overcast
2:35 PM 31.1 °F 21.4 °F 21.7 °F 68% 30.04 in 10.0 mi WNW 12.7 mph - N/A   Overcast
2:55 PM 31.6 °F 20.4 °F 21.7 °F 67% 30.05 in 10.0 mi West 17.3 mph 21.9 mph N/A   Overcast
3:14 PM 32.0 °F 22.5 °F 21.4 °F 65% 30.06 in 10.0 mi WNW 12.7 mph 23.0 mph N/A   Overcast
3:35 PM 31.8 °F 20.6 °F 21.2 °F 65% 30.08 in 10.0 mi WNW 17.3 mph 25.3 mph N/A   Overcast
3:54 PM 31.1 °F 20.9 °F 21.9 °F 69% 30.09 in 10.0 mi WNW 13.8 mph 21.9 mph N/A   Overcast
4:15 PM 31.1 °F 21.4 °F 22.6 °F 71% 30.10 in 10.0 mi WNW 12.7 mph - N/A   Overcast
4:34 PM 31.1 °F 21.4 °F 22.6 °F 71% 30.11 in 10.0 mi WNW 12.7 mph - N/A   Overcast
5:15 PM 31.1 °F 21.4 °F 21.7 °F 68% 30.12 in 10.0 mi WNW 12.7 mph - N/A   Overcast
5:34 PM 31.1 °F 20.5 °F 21.6 °F 68% 30.13 in 10.0 mi WNW 15.0 mph - N/A   Overcast
5:54 PM 30.9 °F 21.7 °F 22.1 °F 70% 30.14 in 10.0 mi WNW 11.5 mph - N/A   Overcast
6:15 PM 30.6 °F 19.8 °F 21.4 °F 69% 30.15 in 10.0 mi WNW 15.0 mph 18.4 mph N/A   Overcast
6:34 PM 30.2 °F 21.3 °F 21.2 °F 69% 30.16 in 10.0 mi WNW 10.4 mph - N/A   Overcast
6:55 PM 30.2 °F 23.4 °F 22.1 °F 72% 30.17 in 10.0 mi WNW 6.9 mph - N/A   Overcast
7:15 PM 29.8 °F 22.2 °F 23.0 °F 76% 30.17 in 10.0 mi WNW 8.1 mph - N/A   Overcast
7:34 PM 29.8 °F 21.5 °F 22.3 °F 73% 30.20 in 10.0 mi WNW 9.2 mph - N/A   Overcast
7:55 PM 29.8 °F 22.2 °F 22.5 °F 74% 30.20 in 10.0 mi West 8.1 mph - N/A   Overcast
8:14 PM 29.5 °F 22.5 °F 22.1 °F 74% 30.21 in 10.0 mi West 6.9 mph - N/A   Overcast
8:34 PM 29.3 °F 21.5 °F 22.1 °F 75% 30.22 in 10.0 mi West 8.1 mph - N/A   Overcast
8:55 PM 29.1 °F 19.4 °F 21.9 °F 74% 30.23 in 10.0 mi West 11.5 mph - N/A   Overcast
9:14 PM 29.1 °F 20.6 °F 21.7 °F 74% 30.23 in 10.0 mi West 9.2 mph - N/A   Overcast
9:34 PM 28.8 °F 20.2 °F 21.7 °F 75% 30.24 in 10.0 mi West 9.2 mph - N/A   Overcast
9:55 PM 28.8 °F 20.9 °F 21.2 °F 73% 30.25 in 10.0 mi West 8.1 mph - N/A   Overcast
10:34 PM 28.2 °F 19.5 °F 21.7 °F 77% 30.27 in 10.0 mi WSW 9.2 mph - N/A   Overcast
10:55 PM 28.0 °F 18.6 °F 21.7 °F 77% 30.28 in 10.0 mi WSW 10.4 mph - N/A   Overcast
11:14 PM 28.0 °F 20.0 °F 21.7 °F 77% 30.28 in 10.0 mi WSW 8.1 mph - N/A   Overcast
11:35 PM 27.9 °F 19.8 °F 21.6 °F 77% 30.29 in 10.0 mi West 8.1 mph - N/A   Overcast
11:54 PM 27.7 °F 18.8 °F 21.9 °F 79% 30.29 in 10.0 mi West 9.2 mph - N/A   Overcast